| time (UTC) | temp F | wind direction | speed knots | gust knots | rain 1hr in | rain 24hr in | rain mn in | humidity % | barometer mb |
| 20260502220004 | 45 | 336 | 0.0 | 4.3 | 0.00 | 0.15 | 0.00 | 57 | 1013.5 |
| 20260502214504 | 45 | 313 | 2.6 | 5.2 | 0.00 | 0.15 | 0.00 | 56 | 1013.4 |
| 20260502213003 | 46 | 336 | 0.9 | 5.2 | 0.00 | 0.15 | 0.00 | 55 | 1013.4 |
| 20260502211507 | 45 | 335 | 2.6 | 7.8 | 0.00 | 0.15 | 0.00 | 56 | 1013.3 |
| 20260502210005 | 44 | 306 | 4.3 | 9.6 | 0.00 | 0.18 | 0.00 | 57 | 1013.2 |
| 20260502204503 | 45 | 304 | 6.1 | 10.4 | 0.00 | 0.18 | 0.00 | 55 | 1013.3 |
| 20260502203002 | 45 | 304 | 6.1 | 10.4 | 0.00 | 0.18 | 0.00 | 55 | 1013.3 |
| 20260502201502 | 45 | 337 | 3.5 | 7.0 | 0.00 | 0.18 | 0.00 | 56 | 1013.3 |
| 20260502200059 | 44 | 298 | 2.6 | 7.0 | 0.00 | 0.21 | 0.00 | 58 | 1013.6 |
| 20260502194558 | 44 | 305 | 3.5 | 7.0 | 0.00 | 0.21 | 0.00 | 57 | 1013.7 |
| 20260502193104 | 45 | 304 | 4.3 | 8.7 | 0.00 | 0.21 | 0.00 | 55 | 1013.7 |
| 20260502191602 | 47 | 5 | 2.6 | 4.3 | 0.00 | 0.21 | 0.00 | 50 | 1013.9 |
| 20260502190110 | 47 | 15 | 0.0 | 5.2 | 0.00 | 0.21 | 0.00 | 50 | 1014.0 |
| 20260502184603 | 46 | 336 | 0.0 | 0.9 | 0.00 | 0.21 | 0.00 | 51 | 1014.0 |
| 20260502183110 | 46 | 324 | 0.0 | 5.2 | 0.00 | 0.21 | 0.00 | 53 | 1013.9 |
| 20260502181555 | 46 | 304 | 0.0 | 4.3 | 0.00 | 0.21 | 0.00 | 51 | 1014.0 |
| 20260502163056 | 46 | 308 | 4.3 | 9.6 | 0.00 | 0.21 | 0.00 | 50 | 1014.1 |
| 20260502161611 | 45 | 307 | 0.0 | 6.1 | 0.00 | 0.21 | 0.00 | 52 | 1014.2 |
| 20260502151551 | 46 | 350 | 0.9 | 6.1 | 0.00 | 0.21 | 0.00 | 50 | 1014.4 |
| 20260502123035 | 41 | 305 | 1.7 | 3.5 | 0.00 | 0.21 | 0.00 | 68 | 1015.1 |
| 20260502121531 | 40 | 304 | 1.7 | 6.1 | 0.00 | 0.21 | 0.00 | 69 | 1015.0 |
| 20260502114525 | 39 | 301 | 0.0 | 0.0 | 0.00 | 0.21 | 0.00 | 75 | 1015.1 |
| 20260502113022 | 38 | 301 | 0.0 | 4.3 | 0.00 | 0.21 | 0.00 | 77 | 1015.1 |
| 20260502111521 | 38 | 301 | 0.0 | 0.0 | 0.00 | 0.21 | 0.00 | 79 | 1015.1 |
| 20260502110019 | 37 | 301 | 0.0 | 0.0 | 0.00 | 0.21 | 0.00 | 84 | 1015.1 |
| 20260502104516 | 35 | 301 | 0.0 | 0.0 | 0.00 | 0.21 | 0.00 | 89 | 1015.0 |
| 20260502103013 | 35 | 301 | 0.0 | 0.0 | 0.00 | 0.21 | 0.00 | 87 | 1014.8 |
| 20260502101510 | 34 | 301 | 0.0 | 0.0 | 0.00 | 0.21 | 0.00 | 87 | 1014.5 |
| 20260502091504 | 36 | 301 | 0.0 | 0.0 | 0.00 | 0.21 | 0.00 | 87 | 1013.8 |
| 20260502070117 | 40 | 307 | 0.0 | 0.0 | 0.00 | 0.21 | 0.21 | 87 | 1013.4 |
| 20260502064559 | 39 | 307 | 0.0 | 0.0 | 0.00 | 0.21 | 0.21 | 89 | 1013.3 |
| 20260502063058 | 38 | 307 | 0.0 | 0.0 | 0.00 | 0.21 | 0.21 | 87 | 1013.6 |
| 20260502061558 | 39 | 307 | 0.0 | 0.0 | 0.00 | 0.21 | 0.21 | 85 | 1013.7 |
| 20260502060057 | 39 | 307 | 0.0 | 0.0 | 0.00 | 0.21 | 0.21 | 88 | 1013.8 |
| 20260502054557 | 38 | 307 | 0.0 | 2.6 | 0.00 | 0.21 | 0.21 | 87 | 1013.9 |
| 20260502053122 | 39 | 307 | 0.0 | 0.0 | 0.00 | 0.21 | 0.21 | 89 | 1013.8 |
| 20260502051612 | 38 | 307 | 0.0 | 0.0 | 0.00 | 0.21 | 0.21 | 88 | 1013.6 |
| 20260502050056 | 39 | 307 | 0.0 | 0.0 | 0.00 | 0.21 | 0.21 | 87 | 1013.5 |
| 20260502044556 | 39 | 307 | 0.0 | 3.5 | 0.00 | 0.21 | 0.21 | 88 | 1013.3 |
| 20260502043110 | 39 | 307 | 0.9 | 5.2 | 0.00 | 0.21 | 0.21 | 89 | 1013.3 |
| 20260502041626 | 39 | 306 | 1.7 | 7.0 | 0.00 | 0.21 | 0.21 | 89 | 1013.4 |
| 20260502040056 | 40 | 296 | 0.9 | 4.3 | 0.00 | 0.21 | 0.21 | 90 | 1013.4 |
| 20260502034555 | 40 | 291 | 1.7 | 5.2 | 0.00 | 0.21 | 0.21 | 91 | 1013.5 |
| 20260502033106 | 40 | 288 | 0.9 | 4.3 | 0.00 | 0.21 | 0.21 | 91 | 1013.2 |
| 20260502031554 | 41 | 285 | 0.0 | 0.0 | 0.00 | 0.21 | 0.21 | 91 | 1013.1 |
| 20260502030056 | 41 | 285 | 0.0 | 0.0 | 0.00 | 0.21 | 0.21 | 91 | 1013.1 |
| 20260502024556 | 41 | 285 | 0.0 | 0.0 | 0.00 | 0.21 | 0.21 | 91 | 1013.1 |
| 20260502023057 | 41 | 285 | 0.0 | 0.0 | 0.00 | 0.21 | 0.21 | 91 | 1012.9 |
| 20260502021552 | 41 | 285 | 0.0 | 1.7 | 0.00 | 0.21 | 0.21 | 92 | 1013.0 |
| 20260502020055 | 41 | 285 | 0.0 | 0.0 | 0.01 | 0.21 | 0.21 | 91 | 1012.9 |
| 20260502014553 | 41 | 285 | 0.0 | 0.0 | 0.03 | 0.21 | 0.21 | 91 | 1013.0 |
| 20260502013052 | 41 | 285 | 0.0 | 3.5 | 0.06 | 0.21 | 0.21 | 91 | 1012.9 |
| 20260502011552 | 42 | 285 | 0.0 | 1.7 | 0.10 | 0.21 | 0.21 | 91 | 1012.6 |
| 20260502010058 | 43 | 285 | 0.0 | 0.0 | 0.09 | 0.20 | 0.20 | 91 | 1012.3 |
| 20260502004555 | 43 | 285 | 0.0 | 0.0 | 0.09 | 0.18 | 0.18 | 91 | 1012.4 |
| 20260502003051 | 42 | 285 | 0.0 | 0.9 | 0.07 | 0.15 | 0.15 | 90 | 1012.3 |
| 20260502001559 | 43 | 285 | 0.0 | 0.0 | 0.04 | 0.12 | 0.12 | 90 | 1012.1 |
| 20260502000049 | 43 | 285 | 0.0 | 0.0 | 0.04 | 0.11 | 0.11 | 90 | 1012.0 |
| 20260501234549 | 43 | 285 | 0.0 | 0.0 | 0.03 | 0.10 | 0.10 | 89 | 1011.8 |
| 20260501233102 | 44 | 285 | 0.0 | 0.0 | 0.01 | 0.08 | 0.08 | 87 | 1011.8 |
| 20260501231559 | 45 | 285 | 0.0 | 0.0 | 0.01 | 0.08 | 0.08 | 87 | 1011.8 |
| 20260501230050 | 44 | 285 | 0.0 | 0.0 | 0.00 | 0.07 | 0.07 | 88 | 1011.8 |
| 20260501224550 | 43 | 285 | 0.0 | 0.0 | 0.00 | 0.07 | 0.07 | 88 | 1011.8 |
| 20260501223111 | 44 | 285 | 0.0 | 0.9 | 0.01 | 0.07 | 0.07 | 87 | 1012.0 |
| 20260501221549 | 44 | 288 | 0.0 | 1.7 | 0.01 | 0.07 | 0.07 | 88 | 1012.0 |